Theta_e
306 305 305 305 305 306 308 309 308 307 306 306 308 309 310 310 311 312 312 314 316 315 314 312 316 312 309 312 316 317 315 314 315 316 316 320 319 323 325 326 329 331 331 341 353
306 306 305 305 305 305 305 305 305 306 306 306 306 309 310 310 311 313 315 316 316 316 317 314 312 313 311 313 314 315 313 315 316 316 316 318 319 320 322 326 325 326 327 340 339
309 308 307 306 305 305 304 304 304 304 305 305 306 306 307 309 312 315 319 319 319 316 316 315 313 314 310 312 313 315 315 315 317 318 318 318 319 320 320 320 324 324 325 337 339
310 309 308 307 306 306 305 304 304 303 304 304 305 306 307 309 315 319 319 317 317 316 315 316 314 313 311 309 313 312 316 316 317 318 319 317 319 318 320 320 320 320 321 323 329
304 305 305 305 305 305 305 304 304 304 303 303 303 305 309 313 315 316 319 318 319 316 316 317 315 313 312 311 312 313 314 317 318 318 318 319 317 318 319 320 320 320 320 321 321
302 302 302 302 302 303 302 302 303 303 303 303 302 303 310 313 311 317 317 319 320 316 316 316 314 313 314 312 311 315 315 316 317 318 318 317 317 319 319 319 319 319 319 320 320
302 302 302 302 302 302 301 301 301 301 302 303 303 306 311 309 310 319 319 319 321 320 313 314 313 315 315 311 314 314 313 314 316 317 316 319 315 317 319 318 318 318 319 319 319
302 302 302 302 302 302 302 302 302 302 301 302 304 311 312 306 307 312 320 320 320 318 315 314 313 313 315 315 315 313 313 313 313 315 316 317 316 316 318 318 318 318 318 319 319
301 301 301 302 302 302 302 302 303 303 303 308 311 311 313 311 317 314 319 320 319 316 313 314 314 315 316 315 314 313 314 313 314 314 315 315 316 316 318 318 317 318 318 318 319
301 301 302 302 302 302 302 303 305 307 309 312 312 314 313 312 315 320 319 320 320 318 315 316 318 315 314 314 315 314 314 315 315 315 315 315 315 316 318 318 318 319 318 318 318
302 302 303 303 302 302 301 303 311 312 312 315 315 315 314 317 319 320 319 320 321 319 319 319 317 317 316 316 316 315 315 316 318 318 317 316 316 316 318 319 319 320 320 319 319
304 304 304 304 305 304 305 309 312 311 313 313 312 315 316 312 317 319 320 320 321 320 319 318 319 318 317 317 317 316 315 315 317 320 318 318 318 320 320 319 320 320 321 320 319
302 302 302 302 303 308 310 310 307 310 313 312 312 314 313 316 318 318 320 320 321 322 320 319 320 319 318 316 316 315 314 315 317 319 320 321 320 322 323 322 323 322 323 321 320
299 300 300 301 303 305 303 307 310 311 309 310 312 314 315 314 317 317 318 321 321 323 322 320 320 319 317 315 315 315 315 317 318 319 320 320 318 321 321 321 322 322 321 321 321
298 298 298 299 301 302 303 309 311 311 312 312 314 318 317 316 318 318 318 320 321 323 323 323 320 319 316 315 315 315 317 317 317 319 320 319 317 319 321 322 321 319 321 321 321
297 297 298 298 300 300 306 310 309 313 313 311 313 313 319 315 316 319 318 319 320 322 321 321 319 317 317 316 315 316 317 318 318 317 317 319 320 319 322 322 321 320 322 322 322
296 297 297 299 301 305 309 312 314 316 311 311 312 313 313 319 320 322 321 319 320 322 322 321 319 319 318 317 316 315 315 319 320 317 318 319 319 318 323 324 323 321 322 323 326
296 297 298 302 307 308 311 312 313 311 312 312 312 312 313 315 318 319 317 323 320 319 319 321 321 319 319 317 316 315 317 318 320 320 319 319 319 319 321 323 325 324 323 326 329
297 298 302 311 310 310 311 315 313 310 311 312 311 312 313 314 321 320 317 321 320 321 319 320 320 319 319 318 317 318 318 318 320 323 322 320 319 325 324 324 323 325 326 329 330
299 302 304 310 312 312 312 313 311 311 311 313 316 313 314 317 317 320 320 320 321 320 320 319 321 320 319 318 320 319 318 319 318 323 325 323 324 326 327 325 326 323 325 331 331
301 303 303 307 309 307 313 311 311 311 311 313 315 316 316 316 318 319 320 320 322 323 322 321 323 322 321 321 320 319 320 319 318 320 322 324 331 327 327 324 325 325 327 331 331
302 303 307 309 308 309 312 308 309 312 312 315 315 317 315 318 318 320 321 320 320 321 323 321 322 323 321 321 321 322 318 319 322 323 322 322 330 326 325 326 325 325 327 327 326
302 303 307 306 306 307 308 309 311 312 313 312 315 316 315 317 320 318 319 319 319 320 320 323 323 323 324 320 320 323 322 319 319 324 326 326 327 325 326 325 326 326 324 324 326
303 306 305 305 304 307 308 309 310 310 312 312 314 314 314 317 319 319 320 320 319 319 318 321 322 321 322 321 323 323 322 319 320 323 324 326 327 326 326 326 325 325 325 325 325
304 305 304 304 304 305 308 309 309 311 311 311 313 313 314 315 317 318 318 316 318 318 320 323 325 324 324 325 325 324 323 319 321 325 326 327 327 325 324 326 324 324 324 324 322
303 303 303 302 304 305 308 307 310 310 311 313 314 313 313 316 316 319 317 313 318 319 321 321 324 323 324 322 326 326 324 323 326 325 326 326 326 323 323 325 325 325 323 323 323
301 302 303 303 304 305 307 307 308 309 309 308 313 313 314 313 312 313 314 315 318 320 319 321 324 323 327 324 323 325 324 326 326 324 325 326 325 322 324 323 324 325 323 322 319
Wind_Speed
20 20 20 20 20 21 21 21 21 21 21 23 23 24 25 27 30 29 37 35 25 19 19 12 11 16 17 14 23 22 9 11 16 16 10 26 8 16 26 24 12 18 15 10 20
21 20 20 20 21 22 23 23 23 23 23 22 22 23 25 27 30 41 34 30 27 26 20 24 17 15 14 16 12 10 8 19 9 11 12 21 18 16 6 10 5 7 13 16 18
22 22 23 23 23 24 24 24 24 24 25 25 24 24 25 24 29 27 6 12 20 27 22 15 20 19 23 24 21 11 20 9 17 31 33 26 23 26 7 5 7 11 16 16 17
24 25 25 24 24 24 24 25 24 24 25 25 25 25 22 17 7 7 5 6 2 23 27 22 23 26 10 11 30 14 24 23 26 29 25 11 23 13 9 9 19 16 7 11 10
26 27 27 28 28 28 27 26 26 26 26 26 25 23 19 9 35 23 15 10 9 16 30 30 26 27 14 16 23 20 15 27 32 34 33 31 12 13 18 17 19 20 17 14 14
26 26 26 27 28 29 29 28 27 27 26 26 26 21 13 17 22 9 12 22 16 16 31 32 20 30 13 15 16 14 23 25 27 30 32 12 11 16 16 16 19 22 21 20 20
27 27 27 28 28 28 30 30 29 28 28 28 26 15 21 49 20 7 18 30 18 22 31 35 32 23 31 8 31 26 17 15 21 20 13 24 10 16 21 19 21 23 27 25 25
27 29 29 30 31 29 31 32 30 28 31 28 23 12 21 38 30 28 20 22 23 22 26 28 31 34 32 24 23 13 17 16 9 11 12 12 20 9 21 24 28 27 27 32 34
31 31 32 32 33 33 32 34 32 29 28 16 11 14 16 17 22 24 33 28 25 22 21 27 30 34 28 11 6 8 10 10 11 8 8 13 19 11 22 26 28 32 35 32 29
33 34 35 34 33 34 33 35 32 20 11 5 11 9 19 25 19 12 32 27 28 25 27 28 25 9 8 8 14 9 9 14 12 17 16 15 16 17 25 26 25 24 35 37 34
32 33 34 34 34 32 35 36 7 7 13 18 15 20 23 16 20 20 26 27 24 29 19 26 10 17 15 15 10 14 15 15 10 17 17 20 19 18 18 20 14 16 24 31 33
34 35 36 36 35 34 28 14 19 17 25 30 40 48 44 42 24 27 26 26 22 20 19 13 22 15 13 16 18 19 20 18 14 17 15 16 13 9 9 10 22 26 26 28 22
36 37 37 37 35 18 10 25 27 34 18 43 43 46 49 38 40 41 32 37 14 21 23 23 11 19 19 20 21 21 21 16 14 17 16 8 6 6 6 8 20 29 25 27 25
37 37 37 39 28 18 36 21 21 19 5 14 12 20 30 37 22 45 39 36 21 23 22 24 19 21 25 22 20 19 20 21 19 15 5 7 4 6 8 11 9 14 16 13 10
38 37 37 34 43 32 31 13 9 15 6 10 9 2 9 32 7 32 39 33 24 23 20 23 23 24 22 25 21 19 17 20 19 9 4 8 4 6 6 14 19 10 19 15 17
39 38 38 42 33 40 17 13 20 4 9 9 16 14 4 20 19 9 25 34 29 20 20 22 21 20 24 19 24 19 16 15 9 2 4 6 5 7 2 7 10 10 24 19 23
42 42 39 38 40 20 10 14 4 7 9 12 12 24 22 8 13 3 11 24 17 22 22 19 26 21 20 19 18 20 12 5 3 6 4 7 5 7 5 2 9 8 20 23 12
45 44 40 33 24 10 7 4 8 10 15 18 30 27 25 17 4 6 5 13 11 17 9 16 16 25 22 26 16 15 10 5 6 4 4 7 7 13 9 6 14 5 30 23 24
46 44 37 17 20 18 14 6 3 9 19 24 24 25 20 18 5 4 10 12 11 20 15 15 24 13 22 20 20 8 10 9 7 3 3 3 6 3 5 10 8 11 21 30 37
42 36 22 27 16 14 8 12 13 22 24 18 17 14 19 20 5 1 2 2 6 20 22 11 8 21 20 19 13 11 7 7 4 6 3 6 3 2 9 10 12 21 12 27 36
32 18 13 32 30 18 2 5 14 22 20 8 9 14 13 8 17 8 6 5 0 7 13 8 1 4 12 6 8 8 8 6 6 6 6 3 2 3 2 6 8 10 32 13 30
16 6 22 24 12 9 4 13 10 17 24 9 11 17 12 9 7 4 9 5 7 5 7 10 3 6 12 4 13 12 8 7 5 4 3 6 3 3 5 2 12 12 25 26 38
19 11 14 20 6 6 8 20 18 18 14 10 7 11 11 7 3 4 4 7 17 6 5 2 7 4 3 4 11 6 13 7 7 4 3 3 4 3 4 10 8 14 27 36 28
8 5 10 8 26 14 17 15 18 20 13 17 12 10 16 7 7 1 5 1 10 10 6 9 6 8 7 10 3 5 13 9 9 5 2 1 5 4 5 11 7 24 32 32 21
5 4 8 6 10 18 15 13 20 17 10 15 6 12 12 5 3 3 5 4 5 7 10 5 4 5 3 5 2 6 12 16 18 8 8 9 10 7 6 8 14 27 34 38 31
10 8 10 15 20 18 9 11 20 21 15 11 13 17 15 2 6 2 6 4 10 7 6 3 2 4 5 2 2 7 12 9 16 11 11 6 5 4 11 13 17 22 29 29 25
18 20 9 11 10 12 11 18 21 22 9 23 16 13 11 8 15 14 11 12 6 2 6 3 3 4 3 4 7 6 6 2 5 5 8 5 6 6 12 10 8 19 23 20 24
Wind_Direction
338 332 329 324 321 318 316 314 313 313 312 310 306 304 302 301 296 283 270 264 256 235 227 228 210 235 218 234 217 232 237 240 242 246 256 267 270 256 288 256 188 195 230 189 153
333 329 325 322 321 319 317 315 314 313 311 310 307 305 305 304 300 285 286 274 255 240 222 219 210 223 207 224 235 208 224 232 250 262 261 273 284 299 320 218 169 200 231 179 154
330 328 327 325 323 320 317 316 316 314 311 310 309 307 306 313 314 291 335 290 235 212 214 218 220 217 216 228 218 243 235 242 233 252 263 273 287 291 7 331 181 211 234 169 180
326 326 326 324 321 317 315 315 312 309 307 306 305 307 305 308 272 184 235 85 194 209 213 220 223 234 209 218 229 238 239 239 250 256 274 280 298 309 301 283 304 320 321 285 236
326 324 323 321 320 318 316 314 312 309 306 304 304 309 311 256 256 259 248 247 266 211 212 214 220 225 226 209 227 235 242 236 239 250 260 269 271 270 285 286 292 302 305 283 293
331 328 324 321 319 317 316 316 312 308 304 300 299 299 278 261 296 304 246 251 253 221 209 212 218 218 251 221 225 243 238 247 242 229 248 250 264 272 261 274 282 286 290 278 281
331 329 326 324 322 319 316 313 311 307 301 296 292 275 254 251 262 243 241 241 250 245 215 212 210 218 227 253 232 244 253 256 238 237 237 256 267 239 264 269 265 263 273 272 273
326 323 322 321 319 319 315 312 310 306 297 293 285 258 253 276 282 259 214 219 245 227 226 214 208 235 250 237 251 235 246 248 254 219 231 205 254 245 235 247 248 251 254 254 261
325 324 323 321 321 321 317 311 311 300 286 286 266 228 264 287 258 249 199 213 213 216 217 218 220 226 244 238 261 246 240 246 250 245 208 202 248 237 234 243 233 235 236 241 243
328 327 325 324 322 322 318 313 316 281 271 275 234 228 260 244 257 249 206 200 206 208 215 226 234 225 231 211 221 236 223 242 241 229 240 243 236 231 231 238 242 239 226 232 236
328 326 325 324 323 323 318 319 318 305 197 208 226 214 271 283 293 225 206 206 220 207 209 215 219 220 216 226 225 251 241 222 231 240 226 234 232 216 217 227 238 253 218 218 226
328 326 326 323 322 320 309 275 286 298 297 263 257 250 251 261 273 264 195 200 218 201 203 215 225 222 224 229 229 241 246 254 261 244 217 242 207 199 203 214 224 230 237 211 211
327 325 325 324 324 330 312 283 323 312 269 277 263 247 242 234 242 250 199 196 211 208 200 210 211 210 221 227 224 231 242 248 250 267 253 160 205 197 231 243 241 229 229 199 206
324 324 324 324 323 304 298 314 289 331 291 287 246 250 226 211 253 236 236 191 214 218 211 223 222 211 217 229 219 233 230 244 255 264 269 130 236 228 232 243 245 208 167 181 205
324 322 320 318 308 299 312 333 3 331 287 279 278 229 173 175 211 205 221 205 202 211 199 217 202 226 213 222 229 232 232 229 241 251 213 283 132 257 262 263 223 192 173 187 217
324 319 317 311 299 301 312 326 316 238 247 273 311 314 174 212 232 179 214 208 205 217 216 223 220 222 230 215 223 236 234 246 231 177 259 234 144 271 258 232 190 171 175 192 217
325 319 315 304 287 310 278 290 231 232 310 287 322 331 322 165 253 46 322 208 188 207 217 223 223 234 231 232 216 221 225 216 216 222 206 205 263 220 238 172 103 182 181 194 142
327 325 319 312 303 286 275 263 229 263 252 290 313 319 313 311 94 84 343 267 201 222 202 216 225 218 218 225 216 217 188 147 180 176 213 229 220 234 209 192 126 168 184 152 129
330 334 323 349 315 255 212 251 241 267 281 297 310 305 307 313 97 132 186 245 204 237 213 204 241 217 226 225 221 196 202 184 127 25 60 262 245 36 104 44 49 103 125 128 123
334 336 333 347 313 213 197 251 278 286 308 308 297 273 284 298 303 47 165 229 226 213 252 241 226 239 226 231 209 188 180 188 199 143 161 265 176 105 356 52 29 25 109 122 125
345 321 318 342 341 355 284 315 327 313 319 300 277 294 262 282 309 164 198 220 4 231 233 302 192 299 333 241 173 221 196 188 143 142 174 201 230 210 5 42 62 39 45 91 123
341 313 348 353 29 347 357 301 273 302 307 292 263 261 266 295 299 185 198 194 149 121 210 226 46 210 210 321 309 316 176 229 129 211 208 156 207 353 274 102 69 53 65 60 351
322 290 359 360 11 336 305 297 342 336 332 325 298 305 3 236 234 198 240 176 167 127 211 303 173 136 68 294 263 252 259 168 157 84 188 128 233 168 88 68 104 70 78 78 3
312 315 349 1 348 327 322 330 343 334 335 331 317 356 353 323 186 202 236 279 163 154 207 287 213 172 197 177 152 239 251 188 167 120 206 256 174 205 135 123 93 103 105 115 108
328 345 352 316 325 322 341 346 338 343 329 329 317 345 336 288 229 238 210 13 199 163 179 240 190 108 198 127 11 254 239 226 192 159 142 172 153 165 135 133 139 119 126 122 124
350 335 325 305 310 317 332 340 345 346 329 331 325 321 315 300 354 357 24 125 261 138 165 243 195 117 191 243 315 288 287 255 134 127 108 107 70 124 102 118 141 144 136 146 138
333 329 303 311 312 326 344 331 334 336 321 321 330 315 303 344 319 299 290 271 269 147 163 200 164 128 101 2 355 275 210 338 110 112 136 117 156 117 85 76 86 137 148 145 108